カタログに戻る

CZ-3B R/B

運用中HEO
NORAD 45864·ROCKET BODY·🇨🇳 China

打ち上げ Jul 9, 2020 から Xichang Satellite Launch Center

Loading…

次のパス (今後24時間)

TLE

最新Source: Space-Track

元期: Sep 14, 2026, 11:40 UTC

1 45864U 20045B   26257.48622662  .00166134  45533-6  12079-2 0  9994
2 45864  28.3926 354.6354 5019925 188.1871 158.8780  5.75627064 82160

AllMySatでCZ-3B R/Bをリアルタイム追跡

Download on the App Store